Location: Gleizolles
(44.4833°N, 6.7667°E)
Time: 02:17:04
(UTC+00:00)

MOS 1 Rocket - Pass Details

Date: 09 April 2020
Orbit: 614 x 831 km, 97.4° (Epoch: 05 June)

Event Time Altitude Azimuth Distance (km) Brightness Sun altitude
Rises 19:15:54 0° 18° (NNE) 3,356 6.9 -11.9°
Reaches altitude 10° 19:18:22 10° 25° (NNE) 2,434 6.1 -12.3°
Maximum altitude 19:23:33 44° 97° (E) 1,143 4.0 -13.1°
Drops below altitude 10° 19:28:42 10° 168° (SSE) 2,422 5.7 -13.9°
Sets 19:31:08 0° 175° (S) 3,338 6.5 -14.3°
